Location: Diebersbach
(48.5163°N, 8.0558°E)
Time: 21:40:29
(UTC+00:00)

FENGYUN 1C DEB - Pass Details

Date: 31 January 2022
Orbit: 690 x 984 km, 98.6° (Epoch: 20 May)

Event Time Altitude Azimuth Distance (km) Brightness Sun altitude
Rises 05:24:09 0° 24° (NNE) 3,567 ? -15.7°
Reaches altitude 10° 05:27:14 10° 39° (NE) 2,571 ? -15.2°
Maximum altitude 05:31:35 22° 89° (E) 1,783 ? -14.5°
Drops below altitude 10° 05:35:41 10° 139° (SE) 2,406 ? -13.8°
Sets 05:38:27 0° 155° (SSE) 3,279 ? -13.4°
